• In Netherlands
  • List of Countries
  • For 7 days
  • Water Temperature
  • Satellite Maps
  • Weather Map
  • Weather Widgets
  • user-avatar
    Login

    Hourly Weather Viedma

    Today, 17 January, Tuesday

    Time Temperature Precipitation Wind Pressure Humidity
    00:00 +26°C° 0 mm 5 mps 750 mmHg 34%
    01:00 +25°C° 0 mm 5 mps 751 mmHg 35%
    02:00 +25°C° 0 mm 4 mps 751 mmHg 36%
    03:00 +23°C° 0 mm 5 mps 751 mmHg 36%
    04:00 +22°C° 0 mm 7 mps 752 mmHg 36%
    05:00 +21°C° 0 mm 9 mps 752 mmHg 35%
    06:00 +21°C° 0 mm 9 mps 753 mmHg 34%
    07:00 +22°C° 0 mm 9 mps 753 mmHg 32%
    08:00 +22°C° 0 mm 10 mps 754 mmHg 30%
    09:00 +23°C° 0 mm 9 mps 754 mmHg 29%
    10:00 +23°C° 0 mm 9 mps 754 mmHg 27%
    11:00 +24°C° 0 mm 8 mps 754 mmHg 26%
    12:00 +26°C° 0 mm 8 mps 753 mmHg 24%
    13:00 +26°C° 0 mm 7 mps 753 mmHg 23%
    14:00 +27°C° 0 mm 6 mps 753 mmHg 22%
    15:00 +27°C° 0 mm 5 mps 752 mmHg 21%
    16:00 +27°C° 0 mm 4 mps 752 mmHg 21%
    17:00 +28°C° 0 mm 3 mps 751 mmHg 20%
    18:00 +26°C° 0 mm 3 mps 751 mmHg 24%
    19:00 +24°C° 0 mm 3 mps 751 mmHg 28%
    20:00 +22°C° 0 mm 3 mps 752 mmHg 32%
    21:00 +21°C° 0 mm 4 mps 752 mmHg 37%
    22:00 +20°C° 0 mm 4 mps 753 mmHg 42%
    23:00 +20°C° 0 mm 5 mps 753 mmHg 47%

    Tomorrow, 18 January, Wednesday

    Time Temperature Precipitation Wind Pressure Humidity
    00:00 +20°C° 0 mm 5 mps 754 mmHg 48%
    01:00 +19°C° 0 mm 5 mps 754 mmHg 49%
    02:00 +19°C° 0 mm 5 mps 754 mmHg 50%
    03:00 +19°C° 0 mm 5 mps 755 mmHg 51%
    04:00 +19°C° 0 mm 5 mps 755 mmHg 51%
    05:00 +17°C° 0 mm 6 mps 755 mmHg 52%
    06:00 +20°C° 0 mm 6 mps 756 mmHg 45%
    07:00 +21°C° 0 mm 6 mps 756 mmHg 39%
    08:00 +22°C° 0 mm 6 mps 756 mmHg 33%
    09:00 +23°C° 0 mm 6 mps 756 mmHg 31%
    10:00 +24°C° 0 mm 6 mps 756 mmHg 29%
    11:00 +26°C° 0 mm 7 mps 756 mmHg 27%
    12:00 +27°C° 0 mm 6 mps 756 mmHg 26%
    13:00 +27°C° 0 mm 5 mps 756 mmHg 25%
    14:00 +28°C° 0 mm 5 mps 755 mmHg 25%
    15:00 +28°C° 0 mm 4 mps 755 mmHg 24%
    16:00 +29°C° 0 mm 3 mps 754 mmHg 24%
    17:00 +29°C° 0 mm 2 mps 754 mmHg 23%
    18:00 +27°C° 0 mm 4 mps 754 mmHg 30%
    19:00 +24°C° 0 mm 6 mps 754 mmHg 36%
    20:00 +22°C° 0 mm 8 mps 754 mmHg 42%
    21:00 +22°C° 0 mm 8 mps 754 mmHg 44%
    22:00 +21°C° 0 mm 8 mps 754 mmHg 47%
    23:00 +21°C° 0 mm 8 mps 754 mmHg 49%

    Day after tomorrow, 19 January, Thursday

    Time Temperature Precipitation Wind Pressure Humidity
    00:00 +21°C° 0 mm 8 mps 753 mmHg 52%
    01:00 +21°C° 0 mm 8 mps 753 mmHg 54%
    02:00 +20°C° 0 mm 8 mps 753 mmHg 56%
    03:00 +20°C° 0 mm 8 mps 753 mmHg 56%
    04:00 +20°C° 0 mm 7 mps 752 mmHg 55%
    05:00 +20°C° 0 mm 7 mps 752 mmHg 54%
    06:00 +22°C° 0 mm 7 mps 752 mmHg 47%
    07:00 +24°C° 0 mm 6 mps 752 mmHg 40%
    08:00 +27°C° 0 mm 6 mps 752 mmHg 33%
    09:00 +29°C° 0 mm 6 mps 752 mmHg 28%
    10:00 +33°C° 0 mm 6 mps 752 mmHg 23%
    11:00 +35°C° 0 mm 6 mps 752 mmHg 18%
    12:00 +34°C° 0 mm 6 mps 752 mmHg 21%
    13:00 +34°C° 0 mm 7 mps 752 mmHg 23%
    14:00 +33°C° 0 mm 7 mps 752 mmHg 25%
    15:00 +32°C° 0 mm 7 mps 752 mmHg 27%
    16:00 +30°C° 0 mm 7 mps 753 mmHg 30%
    17:00 +29°C° 0 mm 6 mps 753 mmHg 32%
    18:00 +27°C° 0 mm 6 mps 753 mmHg 38%
    19:00 +26°C° 0 mm 6 mps 753 mmHg 44%
    20:00 +23°C° 0 mm 5 mps 754 mmHg 50%
    21:00 +22°C° 0 mm 5 mps 754 mmHg 53%
    22:00 +22°C° 0 mm 5 mps 754 mmHg 55%
    23:00 +21°C° 0 mm 5 mps 754 mmHg 58%

    20 January, Friday

    Time Temperature Precipitation Wind Pressure Humidity
    00:00 +21°C° 0 mm 4 mps 754 mmHg 60%
    01:00 +21°C° 0 mm 4 mps 754 mmHg 62%
    02:00 +21°C° 0 mm 4 mps 754 mmHg 63%
    03:00 +20°C° 0 mm 4 mps 755 mmHg 65%
    04:00 +20°C° 0 mm 4 mps 755 mmHg 67%
    05:00 +20°C° 0 mm 3 mps 755 mmHg 68%
    06:00 +22°C° 0 mm 4 mps 755 mmHg 58%
    07:00 +26°C° 0 mm 4 mps 756 mmHg 47%
    08:00 +28°C° 0 mm 4 mps 756 mmHg 36%
    09:00 +32°C° 0 mm 5 mps 756 mmHg 32%
    10:00 +34°C° 0 mm 5 mps 756 mmHg 27%
    11:00 +36°C° 0 mm 6 mps 756 mmHg 22%
    12:00 +38°C° 0 mm 6 mps 755 mmHg 20%
    13:00 +39°C° 0 mm 6 mps 754 mmHg 19%
    14:00 +40°C° 0 mm 6 mps 754 mmHg 17%
    15:00 +39°C° 0 mm 6 mps 753 mmHg 19%
    16:00 +39°C° 0 mm 6 mps 753 mmHg 21%
    17:00 +38°C° 0 mm 6 mps 752 mmHg 23%
    18:00 +34°C° 0 mm 6 mps 752 mmHg 28%
    19:00 +32°C° 0 mm 6 mps 752 mmHg 34%
    20:00 +29°C° 0 mm 6 mps 752 mmHg 39%
    21:00 +28°C° 0 mm 6 mps 752 mmHg 43%
    22:00 +27°C° 0 mm 6 mps 752 mmHg 47%
    23:00 +26°C° 0 mm 6 mps 751 mmHg 51%

    21 January, Saturday

    Time Temperature Precipitation Wind Pressure Humidity
    00:00 +26°C° 0 mm 5 mps 751 mmHg 52%
    01:00 +26°C° 0 mm 5 mps 751 mmHg 52%
    02:00 +26°C° 0 mm 4 mps 750 mmHg 52%
    03:00 +25°C° 0 mm 5 mps 751 mmHg 54%
    04:00 +23°C° 0 mm 6 mps 751 mmHg 56%
    05:00 +23°C° 0 mm 7 mps 751 mmHg 57%
    06:00 +23°C° 0 mm 8 mps 752 mmHg 57%
    07:00 +24°C° 0 mm 9 mps 753 mmHg 56%
    08:00 +24°C° 0 mm 10 mps 754 mmHg 55%
    09:00 +26°C° 0 mm 10 mps 754 mmHg 50%
    10:00 +27°C° 0 mm 11 mps 755 mmHg 44%
    11:00 +28°C° 0 mm 11 mps 755 mmHg 38%
    12:00 +28°C° 0 mm 10 mps 755 mmHg 36%
    13:00 +29°C° 0 mm 10 mps 755 mmHg 33%
    14:00 +29°C° 0 mm 9 mps 756 mmHg 31%
    15:00 +29°C° 0 mm 7 mps 756 mmHg 31%
    16:00 +28°C° 0 mm 6 mps 756 mmHg 31%
    17:00 +28°C° 0 mm 5 mps 756 mmHg 31%
    18:00 +27°C° 0 mm 5 mps 756 mmHg 35%
    19:00 +25°C° 0 mm 5 mps 756 mmHg 39%
    20:00 +23°C° 0 mm 5 mps 757 mmHg 44%
    21:00 +22°C° 0 mm 5 mps 757 mmHg 47%
    22:00 +21°C° 0 mm 5 mps 757 mmHg 51%
    23:00 +21°C° 0 mm 5 mps 757 mmHg 55%

    22 January, Sunday

    Time Temperature Precipitation Wind Pressure Humidity
    00:00 +20°C° 0 mm 5 mps 757 mmHg 57%
    01:00 +20°C° 0 mm 4 mps 758 mmHg 59%
    02:00 +20°C° 0 mm 4 mps 758 mmHg 61%
    03:00 +19°C° 0 mm 3 mps 758 mmHg 64%
    04:00 +19°C° 0 mm 3 mps 759 mmHg 66%
    05:00 +18°C° 0 mm 2 mps 759 mmHg 69%
    06:00 +20°C° 0 mm 2 mps 759 mmHg 62%
    07:00 +23°C° 0 mm 2 mps 759 mmHg 56%
    08:00 +24°C° 0 mm 2 mps 760 mmHg 49%
    09:00 +26°C° 0 mm 2 mps 760 mmHg 44%
    10:00 +28°C° 0 mm 2 mps 759 mmHg 38%
    11:00 +29°C° 0 mm 2 mps 759 mmHg 33%
    12:00 +30°C° 0 mm 3 mps 759 mmHg 32%
    13:00 +30°C° 0 mm 5 mps 758 mmHg 32%
    14:00 +32°C° 0 mm 6 mps 758 mmHg 31%
    15:00 +30°C° 0 mm 7 mps 758 mmHg 33%
    16:00 +29°C° 0 mm 8 mps 757 mmHg 35%
    17:00 +28°C° 0 mm 8 mps 757 mmHg 37%
    18:00 +27°C° 0 mm 8 mps 757 mmHg 42%
    19:00 +24°C° 0 mm 7 mps 757 mmHg 48%
    20:00 +22°C° 0 mm 7 mps 757 mmHg 53%
    21:00 +21°C° 0 mm 7 mps 757 mmHg 55%
    22:00 +21°C° 0 mm 7 mps 757 mmHg 57%
    23:00 +21°C° 0 mm 7 mps 757 mmHg 58%
    Show more